TimeMDT,TemperatureF,Dew PointF,Humidity,Sea Level PressureIn,VisibilityMPH,Wind Direction,Wind SpeedMPH,Gust SpeedMPH,PrecipitationIn,Events,Conditions,WindDirDegrees,DateUTC
5:00 AM,15.8,14.0,93,29.95,15.0,Variable,3.5,-,N/A,,Scattered Clouds,0,2012-10-30 11:00:00
6:00 AM,18,16,90,29.93,15,Calm,Calm,,,,Partly Cloudy,,2012-10-30 12:00:00
6:00 AM,17.6,15.8,93,29.93,15.0,Calm,Calm,-,N/A,,Scattered Clouds,0,2012-10-30 12:00:00
7:00 AM,30.2,30.2,100,29.90,15.0,WSW,15.0,-,N/A,,Partly Cloudy,250,2012-10-30 13:00:00
8:00 AM,30.2,28.4,93,29.90,15.0,WSW,13.8,-,N/A,,Scattered Clouds,250,2012-10-30 14:00:00
9:00 AM,32.0,26.6,80,29.90,30.0,WSW,11.5,-,N/A,,Mostly Cloudy,250,2012-10-30 15:00:00
10:00 AM,37.4,26.6,65,29.88,30.0,West,6.9,-,N/A,,Mostly Cloudy,270,2012-10-30 16:00:00
11:00 AM,33.8,28.4,81,29.92,30.0,ENE,13.8,-,N/A,,Mostly Cloudy,70,2012-10-30 17:00:00
12:00 PM,29,26,82,29.97,19,NE,15.0,,,,Overcast,40,2012-10-30 18:00:00
12:00 PM,28.4,24.8,86,29.97,20.0,NE,18.4,-,N/A,,Overcast,40,2012-10-30 18:00:00
12:58 PM,26.6,23.0,86,29.99,1.0,NNE,12.7,-,N/A,,Overcast,30,2012-10-30 18:58:00
1:00 PM,26.6,23.0,86,29.99,1.2,NE,13.8,-,N/A,,Overcast,40,2012-10-30 19:00:00
1:28 PM,24.8,23.0,93,30.02,1.0,NNE,13.8,-,N/A,Snow,Light Snow Grains,20,2012-10-30 19:28:00
2:00 PM,23.0,23.0,100,30.04,0.8,NNE,12.7,-,N/A,Snow,Light Snow Grains,20,2012-10-30 20:00:00
2:34 PM,23.0,21.2,93,30.07,0.5,NNE,12.7,-,N/A,Snow,Light Snow Grains,30,2012-10-30 20:34:00
3:00 PM,23.0,21.2,93,30.08,1.0,NNE,8.1,-,N/A,Snow,Light Snow Grains,30,2012-10-30 21:00:00
3:36 PM,23.0,21.2,93,30.11,2.0,North,10.4,-,N/A,Snow,Light Snow Grains,10,2012-10-30 21:36:00
4:00 PM,23.0,21.2,93,30.12,4.0,North,12.7,-,N/A,Snow,Light Snow Grains,10,2012-10-30 22:00:00
5:00 PM,21.2,19.4,93,30.15,5.0,North,9.2,-,N/A,,Overcast,10,2012-10-30 23:00:00
6:00 PM,22,20,87,30.16,5,North,4.6,,,,Mist,0,2012-10-31 00:00:00
6:00 PM,23.0,19.4,86,30.15,5.0,North,3.5,-,N/A,,Overcast,360,2012-10-31 00:00:00
6:25 PM,21.2,19.4,93,30.17,7.0,NNW,2.3,-,N/A,,Overcast,340,2012-10-31 00:25:00
6:43 PM,21.2,19.4,93,30.17,7.0,Calm,Calm,-,N/A,,Overcast,0,2012-10-31 00:43:00
7:00 PM,21.2,19.4,93,30.14,7.0,WNW,2.3,-,N/A,,Overcast,290,2012-10-31 01:00:00
8:00 PM,23.0,19.4,86,30.16,7.0,SW,3.5,-,N/A,,Overcast,220,2012-10-31 02:00:00
9:00 PM,21.2,19.4,93,30.16,7.0,Calm,Calm,-,N/A,,Overcast,0,2012-10-31 03:00:00
10:00 PM,23.0,19.4,86,30.00,7.0,SE,3.5,-,N/A,,Overcast,130,2012-10-31 04:00:00